FW6402 Weather Reports


Display with metric or nautical units.
time (UTC)temp
F
wind
direction
speed
MPH
gust
MPH
rain 1hr
in
rain 24hr
in
rain mn
in
humidity
%
barometer
mb
20260905125941 53 70 0.0 2.0 0.00 0.20 0.00 96 1018.8
20260905125419 53 80 0.0 2.0 0.00 0.20 0.00 96 1018.8
20260905124936 54 113 0.0 1.0 0.00 0.20 0.00 96 1018.8
20260905124434 53 79 0.0 1.0 0.00 0.20 0.00 96 1018.7
20260905123932 54 79 0.0 1.0 0.00 0.20 0.00 96 1018.8
20260905123430 53 79 0.0 1.0 0.00 0.20 0.00 96 1018.8
20260905122931 53 75 0.0 1.0 0.00 0.20 0.00 96 1018.9
20260905122428 53 64 0.0 1.0 0.00 0.20 0.00 96 1018.8
20260905121927 54 100 0.0 1.0 0.00 0.20 0.00 96 1018.9
20260905121424 54 100 0.0 1.0 0.00 0.20 0.00 96 1019.0
20260905120945 54 100 0.0 1.0 0.00 0.20 0.00 96 1018.9
20260905120421 54 103 0.0 2.0 0.00 0.20 0.00 96 1018.8
20260905115919 53 105 1.0 2.0 0.00 0.23 0.00 96 1018.8
20260905115447 54 90 1.0 2.0 0.00 0.23 0.00 96 1018.8
20260905114946 54 84 0.0 1.0 0.00 0.23 0.00 96 1018.9
20260905114424 54 98 0.0 1.0 0.00 0.23 0.00 96 1018.8
20260905113922 54 98 0.0 1.0 0.00 0.23 0.00 96 1018.8
20260905113421 54 96 0.0 1.0 0.00 0.23 0.00 96 1018.8
20260905112934 54 96 0.0 1.0 0.00 0.23 0.00 96 1018.8
20260905112439 54 77 0.0 0.0 0.00 0.23 0.00 96 1018.8
20260905111937 54 77 0.0 1.0 0.00 0.23 0.00 96 1018.6
20260905111435 54 77 0.0 1.0 0.00 0.23 0.00 96 1018.6
20260905110942 54 78 0.0 1.0 0.00 0.23 0.00 96 1018.7
20260905110440 54 77 0.0 1.0 0.00 0.23 0.00 96 1018.7
20260905105937 54 77 0.0 1.0 0.00 0.27 0.00 96 1018.7
20260905105435 54 78 0.0 1.0 0.00 0.27 0.00 96 1018.7
20260905104934 54 71 0.0 1.0 0.00 0.27 0.00 96 1018.8
20260905104450 54 97 0.0 0.0 0.00 0.27 0.00 96 1018.7
20260905103926 54 143 0.0 0.0 0.00 0.27 0.00 96 1018.7
20260905103507 53 143 0.0 0.0 0.00 0.27 0.00 96 1018.7
20260905102925 53 143 0.0 0.0 0.00 0.27 0.00 96 1018.7
20260905102422 54 143 0.0 0.0 0.00 0.27 0.00 96 1018.7
20260905101919 54 143 0.0 0.0 0.00 0.27 0.00 96 1018.8
20260905101438 54 143 0.0 0.0 0.00 0.27 0.00 96 1018.7
20260905100944 54 143 0.0 0.0 0.00 0.27 0.00 96 1018.8
20260905100421 54 143 0.0 0.0 0.00 0.27 0.00 96 1018.8
20260905095920 54 143 0.0 0.0 0.00 0.27 0.00 96 1018.8
20260905095502 54 143 0.0 0.0 0.00 0.27 0.00 96 1018.8
20260905094937 54 143 0.0 0.0 0.00 0.27 0.00 96 1018.8
20260905094435 54 143 0.0 0.0 0.00 0.27 0.00 96 1018.8
20260905093934 54 143 0.0 0.0 0.00 0.27 0.00 96 1018.8
20260905093432 54 143 0.0 0.0 0.00 0.27 0.00 96 1018.6
20260905092939 54 144 0.0 0.0 0.00 0.27 0.00 96 1018.6
20260905092437 54 143 0.0 0.0 0.00 0.27 0.00 96 1018.5
20260905091934 54 143 0.0 0.0 0.00 0.27 0.00 96 1018.6
20260905091431 54 143 0.0 0.0 0.00 0.27 0.00 96 1018.5
20260905090428 54 143 0.0 0.0 0.00 0.27 0.00 96 1018.5
20260905085945 54 143 0.0 0.0 0.00 0.27 0.00 96 1018.5
20260905085445 54 143 0.0 0.0 0.00 0.27 0.00 96 1018.6
20260905084945 54 143 0.0 0.0 0.00 0.27 0.00 96 1018.7
20260905084443 54 181 0.0 0.0 0.00 0.27 0.00 96 1018.6
20260905083921 54 98 0.0 0.0 0.00 0.27 0.00 96 1018.5
20260905083508 55 98 0.0 0.0 0.00 0.27 0.00 96 1018.5
20260905082945 55 98 0.0 0.0 0.00 0.27 0.00 96 1018.4
20260905082420 55 98 0.0 0.0 0.00 0.27 0.00 96 1018.4
20260905081918 55 97 0.0 0.0 0.00 0.27 0.00 96 1018.3
20260905081433 55 97 0.0 0.0 0.00 0.27 0.00 96 1018.3
20260905080932 55 97 0.0 0.0 0.00 0.27 0.00 96 1018.3
20260905080430 55 97 0.0 0.0 0.00 0.27 0.00 96 1018.3
20260905075937 55 97 0.0 0.0 0.00 0.27 0.00 96 1018.4
20260905075435 55 97 0.0 0.0 0.00 0.27 0.00 96 1018.3
20260905074934 55 108 0.0 0.0 0.00 0.27 0.00 96 1018.3
20260905074432 55 87 0.0 1.0 0.00 0.27 0.00 96 1018.3
20260905073930 55 87 0.0 1.0 0.00 0.27 0.00 96 1018.3
20260905073428 55 84 0.0 1.0 0.00 0.27 0.00 96 1018.2
20260905072929 55 84 0.0 1.0 0.00 0.27 0.00 96 1018.3
20260905072427 55 86 0.0 0.0 0.00 0.27 0.00 96 1018.3
20260905071919 55 113 0.0 1.0 0.00 0.27 0.00 96 1018.3
20260905071442 55 113 0.0 0.0 0.00 0.27 0.00 96 1018.2
20260905070938 55 113 0.0 1.0 0.00 0.27 0.00 96 1018.2
20260905070458 55 113 0.0 1.0 0.00 0.27 0.00 96 1018.2
20260905065934 56 113 0.0 1.0 0.00 0.27 0.27 96 1018.1
20260905065432 55 124 0.0 0.0 0.00 0.27 0.27 96 1018.0
20260905064956 55 124 0.0 0.0 0.00 0.27 0.27 96 1018.0
20260905064435 55 124 0.0 0.0 0.00 0.27 0.27 96 1017.9
20260905063931 55 124 0.0 1.0 0.00 0.27 0.27 96 1017.9
20260905063431 55 124 0.0 1.0 0.00 0.27 0.27 96 1017.9
20260905062929 55 124 0.0 1.0 0.00 0.27 0.27 96 1017.9
20260905062447 56 124 0.0 1.0 0.00 0.27 0.27 96 1017.9
20260905061921 55 158 0.0 0.0 0.00 0.27 0.27 96 1017.9
20260905061418 55 158 0.0 0.0 0.00 0.27 0.27 96 1017.7
20260905060935 55 158 0.0 0.0 0.00 0.27 0.27 96 1017.7
20260905060433 55 158 0.0 0.0 0.00 0.27 0.27 96 1017.7
20260905055919 55 160 0.0 0.0 0.00 0.28 0.27 95 1017.7
20260905055456 55 160 0.0 0.0 0.00 0.28 0.27 95 1017.7
20260905054943 55 159 0.0 0.0 0.00 0.28 0.27 95 1017.7
20260905054440 55 160 0.0 0.0 0.00 0.28 0.27 95 1017.6
20260905053933 55 160 0.0 0.0 0.00 0.28 0.27 95 1017.6
20260905053452 55 160 0.0 0.0 0.00 0.28 0.27 95 1017.6
20260905052952 55 159 0.0 0.0 0.00 0.28 0.27 95 1017.7
20260905052451 55 160 0.0 0.0 0.00 0.28 0.27 95 1017.6
20260905051927 55 160 0.0 0.0 0.00 0.28 0.27 95 1017.6
20260905051425 55 160 0.0 0.0 0.00 0.28 0.27 95 1017.5
20260905050923 55 160 0.0 0.0 0.00 0.28 0.27 95 1017.6
20260905050508 55 159 0.0 0.0 0.00 0.28 0.27 95 1017.6
20260905045939 55 160 0.0 2.0 0.00 0.28 0.27 95 1017.6
20260905045436 55 161 0.0 2.0 0.00 0.28 0.27 95 1017.6
20260905044934 55 208 0.0 1.0 0.00 0.28 0.27 95 1017.5
20260905044442 55 86 0.0 0.0 0.00 0.28 0.27 95 1017.6
20260905043939 55 86 0.0 0.0 0.00 0.28 0.27 95 1017.5
20260905043436 55 86 0.0 0.0 0.00 0.28 0.27 95 1017.5
20260905042933 55 86 0.0 0.0 0.00 0.28 0.27 95 1017.5
20260905042432 55 86 0.0 0.0 0.00 0.28 0.27 95 1017.6
20260905041929 55 86 0.0 0.0 0.00 0.28 0.27 95 1017.5
20260905041427 56 86 0.0 0.0 0.00 0.28 0.27 95 1017.4
20260905040919 55 86 0.0 0.0 0.00 0.28 0.27 94 1017.5
20260905040442 55 86 0.0 0.0 0.00 0.28 0.27 94 1017.4
20260905035941 56 86 0.0 0.0 0.00 0.28 0.27 94 1017.4
20260905035438 56 86 0.0 0.0 0.00 0.28 0.27 94 1017.2
20260905034935 56 86 0.0 0.0 0.00 0.28 0.27 94 1017.2
20260905034433 56 86 0.0 0.0 0.00 0.28 0.27 94 1017.1
20260905033930 56 86 0.0 0.0 0.00 0.28 0.27 94 1017.1
20260905033430 56 86 0.0 0.0 0.00 0.28 0.27 93 1017.2
20260905032920 56 86 0.0 0.0 0.00 0.28 0.27 93 1017.2
20260905032443 57 86 0.0 0.0 0.00 0.28 0.27 93 1017.2
20260905031942 57 86 0.0 1.0 0.00 0.28 0.27 93 1017.1
20260905031503 57 86 0.0 1.0 0.00 0.28 0.27 92 1017.0
20260905030941 57 89 0.0 1.0 0.00 0.28 0.27 93 1017.0
20260905030421 57 125 0.0 3.0 0.00 0.28 0.27 92 1017.0
20260905025935 57 68 1.0 3.0 0.00 0.28 0.27 92 1017.1
20260905025422 57 81 0.0 1.0 0.00 0.28 0.27 92 1016.9
20260905024957 57 32 0.0 1.0 0.00 0.28 0.27 92 1016.9
20260905024444 57 20 0.0 1.0 0.00 0.28 0.27 92 1016.8
20260905023921 58 73 0.0 0.0 0.00 0.28 0.27 91 1017.0
20260905023434 58 73 0.0 0.0 0.00 0.28 0.27 91 1016.9
20260905022932 58 73 0.0 0.0 0.00 0.28 0.27 90 1017.0
20260905022430 58 73 0.0 1.0 0.00 0.28 0.27 90 1017.0
20260905021932 58 73 0.0 1.0 0.00 0.28 0.27 88 1016.9
20260905021427 59 74 0.0 1.0 0.00 0.28 0.27 88 1016.8
20260905020919 59 69 0.0 1.0 0.00 0.28 0.27 88 1016.7
20260905020447 59 68 0.0 2.0 0.00 0.28 0.27 88 1016.5
20260905015943 59 70 1.0 2.0 0.00 0.28 0.27 87 1016.6
20260905015419 59 113 0.0 1.0 0.00 0.28 0.27 88 1016.6
20260905014936 59 156 0.0 2.0 0.00 0.28 0.27 89 1016.6
20260905014500 59 105 1.0 2.0 0.00 0.28 0.27 89 1016.7
20260905013918 59 103 0.0 1.0 0.00 0.28 0.27 89 1016.5
20260905013437 59 93 0.0 1.0 0.00 0.28 0.27 90 1016.5
20260905013003 59 101 0.0 2.0 0.00 0.28 0.27 90 1016.5
20260905012439 59 93 1.0 2.0 0.00 0.28 0.27 89 1016.4
20260905011936 59 113 0.0 1.0 0.00 0.28 0.27 90 1016.3
20260905011434 59 60 0.0 2.0 0.00 0.28 0.27 91 1016.3
20260905010954 59 82 0.0 2.0 0.00 0.28 0.27 91 1016.2
20260905010457 59 48 1.0 2.0 0.00 0.28 0.27 90 1016.2
20260905005949 59 57 0.0 2.0 0.00 0.28 0.27 90 1016.2
20260905005453 59 78 0.0 3.0 0.00 0.28 0.27 90 1016.3
20260905004925 59 56 1.0 3.0 0.00 0.28 0.27 90 1016.2
20260905004446 59 73 1.0 3.0 0.00 0.28 0.27 89 1016.2
20260905003925 59 43 0.0 2.0 0.00 0.28 0.27 89 1016.2
20260905003422 60 86 0.0 2.0 0.00 0.28 0.27 88 1016.2
20260905002919 60 174 0.0 1.0 0.00 0.28 0.27 89 1016.2
20260905002507 60 220 0.0 1.0 0.00 0.28 0.27 89 1016.2
20260905002020 60 203 0.0 2.0 0.00 0.28 0.27 89 1016.3
20260905001442 60 97 0.0 2.0 0.00 0.28 0.27 88 1016.2
20260905000939 60 74 1.0 2.0 0.00 0.28 0.27 89 1016.2
20260905000439 60 115 0.0 1.0 0.00 0.28 0.27 90 1016.1
20260904235935 60 122 0.0 2.0 0.00 0.33 0.27 90 1016.1
20260904235435 60 65 0.0 2.0 0.00 0.33 0.27 90 1016.1
20260904234933 60 56 0.0 7.0 0.00 0.33 0.27 90 1016.1
20260904234429 60 70 2.0 7.0 0.00 0.33 0.27 90 1016.0
20260904233937 60 193 0.0 5.0 0.00 0.33 0.27 90 1016.0
20260904233444 60 44 2.0 6.0 0.00 0.33 0.27 90 1016.1
20260904232938 60 53 2.0 6.0 0.00 0.33 0.27 89 1016.1
20260904232454 60 131 1.0 4.0 0.01 0.33 0.27 90 1016.1
20260904232001 60 115 2.0 4.0 0.01 0.33 0.27 89 1015.9
20260904231436 60 122 1.0 3.0 0.01 0.33 0.27 92 1015.9
20260904230932 59 160 0.0 3.0 0.01 0.33 0.27 92 1016.0
20260904230428 59 58 1.0 5.0 0.02 0.33 0.27 91 1016.0
20260904225929 58 80 3.0 5.0 0.02 0.33 0.27 92 1016.0
20260904225426 58 82 3.0 5.0 0.02 0.33 0.27 93 1015.9
20260904224918 58 96 1.0 3.0 0.02 0.33 0.27 93 1016.0
20260904224431 58 105 2.0 3.0 0.02 0.33 0.27 93 1016.0
20260904223936 57 83 1.0 3.0 0.02 0.33 0.27 93 1016.1
20260904223435 57 72 0.0 2.0 0.03 0.33 0.27 93 1016.2
20260904222934 57 110 0.0 2.0 0.04 0.33 0.27 93 1016.2
20260904222439 57 84 1.0 3.0 0.04 0.32 0.26 93 1016.2
20260904221936 58 94 1.0 3.0 0.08 0.32 0.26 93 1016.3
20260904221435 58 202 0.0 1.0 0.12 0.32 0.26 93 1016.2
20260904220942 58 227 0.0 1.0 0.15 0.32 0.26 93 1016.1
20260904220436 58 211 0.0 1.0 0.17 0.31 0.25 92 1016.0
20260904215933 58 127 0.0 1.0 0.17 0.31 0.25 92 1015.9
20260904215444 58 82 0.0 1.0 0.17 0.31 0.25 92 1015.9
20260904214943 58 68 0.0 1.0 0.17 0.31 0.25 92 1015.9
20260904214441 58 67 0.0 1.0 0.17 0.31 0.25 91 1015.7
20260904213918 58 68 0.0 2.0 0.16 0.30 0.24 90 1015.6
20260904213436 58 71 0.0 2.0 0.16 0.30 0.24 88 1015.6
20260904212942 58 32 0.0 3.0 0.15 0.29 0.23 87 1015.6
20260904212438 59 195 1.0 3.0 0.14 0.28 0.22 85 1015.5
20260904212006 60 278 1.0 4.0 0.09 0.23 0.17 85 1015.5
20260904211438 62 252 1.0 4.0 0.06 0.20 0.14 80 1015.4
20260904210936 65 184 1.0 4.0 0.03 0.17 0.11 74 1015.4
20260904210436 67 212 1.0 3.0 0.00 0.14 0.08 66 1015.0
20260904205933 67 231 1.0 2.0 0.00 0.14 0.08 62 1014.8
20260904205424 68 217 1.0 2.0 0.00 0.14 0.08 61 1014.7
20260904204924 68 268 0.0 2.0 0.00 0.14 0.08 65 1014.6
20260904204422 68 280 1.0 2.0 0.00 0.14 0.08 61 1014.6
20260904203940 68 259 1.0 3.0 0.00 0.14 0.08 62 1014.6
20260904203445 68 86 1.0 3.0 0.00 0.14 0.08 61 1014.6
20260904202922 67 45 0.0 5.0 0.00 0.14 0.08 63 1014.6
20260904202440 68 44 0.0 4.0 0.00 0.14 0.08 62 1014.6
20260904201933 68 70 0.0 2.0 0.00 0.14 0.08 62 1014.6
20260904201418 68 12 0.0 2.0 0.00 0.14 0.08 63 1014.5
20260904200956 67 326 0.0 3.0 0.00 0.14 0.08 64 1014.6
20260904200441 67 275 1.0 3.0 0.00 0.14 0.08 64 1014.6
20260904195938 67 270 1.0 5.0 0.00 0.15 0.08 63 1014.6
20260904195455 68 262 2.0 5.0 0.00 0.15 0.08 61 1014.6
20260904194959 68 49 1.0 5.0 0.00 0.15 0.08 61 1014.7
20260904194434 68 259 3.0 5.0 0.00 0.15 0.08 60 1014.7
20260904193928 69 262 1.0 6.0 0.00 0.15 0.08 61 1014.7
20260904193426 68 95 2.0 6.0 0.00 0.15 0.08 63 1014.8
20260904192923 68 218 1.0 5.0 0.00 0.15 0.08 62 1014.7
20260904192444 67 91 0.0 4.0 0.00 0.15 0.08 65 1014.7
20260904191943 66 67 2.0 6.0 0.00 0.15 0.08 63 1014.7
20260904191418 66 34 4.0 6.0 0.00 0.15 0.08 63 1014.8
20260904191005 66 77 2.0 6.0 0.00 0.15 0.08 64 1014.8
20260904190421 66 112 2.0 7.0 0.00 0.15 0.08 66 1014.8
20260904185919 65 64 3.0 7.0 0.00 0.17 0.08 65 1014.9
20260904185437 65 59 0.0 8.0 0.00 0.17 0.08 67 1014.9
20260904184932 66 302 3.0 8.0 0.00 0.17 0.08 67 1014.9
20260904184430 66 21 1.0 4.0 0.00 0.17 0.08 66 1014.8
20260904183935 66 95 2.0 5.0 0.00 0.17 0.08 65 1014.8
20260904183433 66 110 1.0 4.0 0.00 0.17 0.08 66 1014.7
20260904182955 66 161 0.0 3.0 0.00 0.17 0.08 68 1014.8
20260904182449 66 240 1.0 2.0 0.00 0.17 0.08 67 1014.7
20260904181919 65 110 0.0 2.0 0.00 0.17 0.08 67 1014.7
20260904181425 66 27 1.0 2.0 0.00 0.17 0.08 66 1014.7
20260904180923 66 276 0.0 1.0 0.00 0.17 0.08 69 1014.7
20260904180506 65 276 0.0 1.0 0.00 0.17 0.08 71 1014.7
20260904175942 65 148 0.0 1.0 0.00 0.17 0.08 71 1014.7
20260904175418 65 150 0.0 1.0 0.00 0.17 0.08 71 1014.7
20260904174936 65 138 0.0 2.0 0.00 0.17 0.08 70 1014.7
20260904174503 64 133 0.0 2.0 0.00 0.17 0.08 71 1014.6
20260904173940 63 6 1.0 3.0 0.00 0.17 0.08 71 1014.6
20260904173419 63 65 0.0 3.0 0.00 0.17 0.08 75 1014.5
20260904172945 64 108 0.0 3.0 0.00 0.17 0.08 76 1014.5
20260904172422 63 44 1.0 4.0 0.00 0.17 0.08 78 1014.5
20260904171936 62 57 1.0 4.0 0.00 0.17 0.08 78 1014.5
20260904171502 62 6 1.0 4.0 0.00 0.17 0.08 76 1014.5
20260904170938 61 70 1.0 3.0 0.00 0.17 0.08 79 1014.5
20260904170438 61 242 0.0 3.0 0.00 0.17 0.08 83 1014.5
20260904165935 61 164 0.0 1.0 0.00 0.17 0.08 86 1014.5
20260904165433 60 149 0.0 2.0 0.00 0.17 0.08 88 1014.4
20260904164938 59 142 0.0 2.0 0.00 0.17 0.08 88 1014.5
20260904164455 59 179 0.0 2.0 0.00 0.17 0.08 90 1014.5
20260904163933 59 97 0.0 2.0 0.00 0.17 0.08 87 1014.4
20260904163426 59 84 0.0 2.0 0.00 0.17 0.08 92 1014.3
20260904162923 58 68 1.0 2.0 0.00 0.17 0.08 89 1014.3
20260904162425 57 83 1.0 4.0 0.00 0.17 0.08 89 1014.4
20260904161925 57 82 1.0 4.0 0.00 0.17 0.08 89 1014.3
20260904161422 57 72 0.0 3.0 0.00 0.17 0.08 91 1014.4
20260904160920 56 70 0.0 3.0 0.00 0.17 0.08 90 1014.4
20260904160419 56 39 1.0 3.0 0.00 0.17 0.08 90 1014.4
20260904160004 56 49 0.0 2.0 0.00 0.19 0.08 91 1014.4
20260904155419 56 67 1.0 2.0 0.00 0.19 0.08 90 1014.4
20260904154931 56 65 0.0 2.0 0.00 0.19 0.08 91 1014.5
20260904154428 56 129 0.0 3.0 0.00 0.19 0.08 91 1014.5
20260904153924 55 128 0.0 3.0 0.00 0.19 0.08 91 1014.4
20260904153426 55 124 0.0 2.0 0.00 0.19 0.08 91 1014.4
20260904152937 55 72 1.0 2.0 0.00 0.19 0.08 92 1014.3
20260904152444 54 82 0.0 3.0 0.00 0.19 0.08 92 1014.3
20260904151942 54 54 1.0 3.0 0.00 0.19 0.08 92 1014.3
20260904151421 54 48 1.0 2.0 0.00 0.19 0.08 92 1014.4
20260904150937 54 94 1.0 2.0 0.00 0.19 0.08 92 1014.3
20260904150434 54 110 0.0 3.0 0.00 0.19 0.08 92 1014.2
20260904145936 54 75 1.0 3.0 0.00 0.24 0.08 92 1014.3
20260904145432 54 59 0.0 3.0 0.00 0.24 0.08 92 1014.2
20260904144948 54 157 0.0 2.0 0.00 0.24 0.08 91 1014.2
20260904144447 54 191 1.0 3.0 0.00 0.24 0.08 91 1014.2
20260904144007 54 101 1.0 4.0 0.00 0.24 0.08 91 1013.9
20260904143422 54 96 2.0 4.0 0.00 0.24 0.08 91 1013.7
20260904142940 54 74 2.0 7.0 0.00 0.24 0.08 91 1013.7
20260904142447 54 62 3.0 7.0 0.00 0.24 0.08 92 1013.6
20260904141919 53 95 1.0 3.0 0.00 0.24 0.08 92 1013.5
20260904141437 53 89 0.0 3.0 0.00 0.24 0.08 92 1013.4
20260904140936 53 76 2.0 4.0 0.00 0.24 0.08 93 1013.3
20260904140433 53 97 1.0 4.0 0.00 0.24 0.08 93 1013.3
20260904135958 53 50 1.0 6.0 0.00 0.24 0.08 93 1013.4
20260904135433 53 39 2.0 5.0 0.01 0.24 0.08 93 1013.4
20260904134932 53 53 1.0 4.0 0.01 0.24 0.08 93 1013.4
20260904134457 53 134 2.0 5.0 0.01 0.24 0.08 92 1013.4
20260904133932 53 105 1.0 5.0 0.01 0.24 0.08 93 1013.4
20260904133425 53 69 2.0 4.0 0.01 0.24 0.08 93 1013.3
20260904132945 53 79 2.0 4.0 0.01 0.24 0.08 93 1013.2
20260904132423 53 131 0.0 4.0 0.01 0.24 0.08 93 1013.2
20260904131920 53 37 1.0 3.0 0.01 0.24 0.08 94 1013.2
20260904131418 53 79 1.0 2.0 0.01 0.24 0.08 94 1013.1
20260904130945 53 65 1.0 3.0 0.01 0.24 0.08 94 1013.0
20260904130442 53 66 1.0 4.0 0.01 0.24 0.08 94 1013.0